Погода в Давлеканово

Россия / Республика Башкортостан     54°13′21″N   55°01′52″E
темп.,
°C
ветер,
м/с
пор.,
м/с
влажн.,
%
обл.,
%
осадки,
мм/ч
давл.,
гПа
погр.,
м
27 октября, ср
ср2723:00+1юз6135686 0.0 1025538
02:000юз6126224 0.0 1025463
05:00−1юз5126969 0.0 1024384
08:00−1ююз51171100 0.0 1023394
11:00+2юз7116036 0.0 1022547
14:00+5юз7115292 0.0 1021745
17:00+5юз7135649 0.0 1020732
20:00+4юз71458100 0.0 1019583
28 октября, чт
чт2823:00+3юз71457100 0.0 1018543
02:00+3юз7155895 0.0 1017523
05:00+1юз7155915 0.0 1016546
08:00+2юз81656100 0.0 1014669
11:00+3зюз81464100 0.0 1015831
14:00+4зюз7126298 0.0 1015681
17:00+4юз61265100 0.0 1015553
20:00+4юз61266100 0.0 1015517
29 октября, пт
пт2923:00+4юз61270100 0.0 1015386
02:00+4зюз51271100 0.0 1015481
05:00+2зюз4988100 0.0 1016419
08:00+2зюз4893100 0.7 1017589
11:00−1с6989100 2.1 1021502
14:000ссв78470 0.1 1024816
17:00−1ссв58500 0.1 1027766
20:00−3с37640 0.0 1031193
30 октября, сб
сб3023:00−4с22685 0.0 103232
02:00−4всв0168100 0.0 103310
05:00−4юз1165100 0.0 103320
08:00−3ююз2558100 0.0 1033154
11:000юз5941100 0.0 1032396
14:00+1юз61441100 0.3 1029524
17:00+2зюз71443100 0.4 1028564
20:00+1зюз5125566 0.0 1028380
31 октября, вс
вс3123:00+1зюз4106884 0.0 1028297
02:00+2зюз4976100 0.0 1028266
05:00+2зюз3883100 0.0 1029232
08:00+3зюз3887100 0.0 1029235
11:00+4зюз478192 0.0 1030279
14:00+8зюз4566100 0.0 1030503
17:00+6юз4872100 0.0 1029267
20:00+4юз497996 0.0 1030196